Weather in Tirlyanskiy

Russia / Republic of Bashkortostan     54°12′39″N   58°35′11″E
temp.,
°C
wind,
m/s
gust,
m/s
humid.,
%
clouds,
%
prec.,
mm/h
press.,
hPa
HPBL,
m
5 march, fri
fri523:00−8sw6169146 0.4 1000858
02:00−6sw7189164 1.6 9971187
05:00−4wsw8169082 4.6 9981421
08:00−5w51293100 2.1 10001039
11:00−4wsw5109199 3.5 10021073
14:00−3sw5109098 0.8 10001036
17:00−4sw5129299 1.8 10001083
20:00−4wsw41293100 1.1 1000898
6 march, sat
sat623:00−11w259377 1.5 1006100
02:00−15w22911 0.0 100922
05:00−18w22931 0.0 101220
08:00−18wsw22940 0.0 101321
11:00−10w49810 0.0 1013880
14:00−8w48779 0.0 10131382
17:00−9wsw498252 0.3 10121285
20:00−13sw259577 0.1 1013139
7 march, sun
sun723:00−15sw229681 0.2 101430
02:00−16sw1297100 0.0 101321
05:00−15ssw1297100 0.0 101323
08:00−14ssw0197100 0.1 101120
11:00−10ene1194100 0.9 1008213
14:00−9ne2293100 1.3 1005380
17:00−9nnw3592100 2.4 1005582
20:00−14nw2592100 0.2 1007171
8 march, mon
mon823:00−19wnw229751 0.2 101021
02:00−22w22986 0.0 101120
05:00−23w229711 0.0 101220
08:00−20sw229894 0.0 101149
11:00−12ssw4119097 0.1 1009663
14:00−9sw51089100 0.3 10061038
17:00−7wsw71489100 1.0 10061644
20:00−13wsw399146 0.1 1008270
9 march, tue
tue923:00−17sw239124 0.1 101023
02:00−13se129789 0.5 1006108
05:00−11se279794 2.0 1000350
08:00−11wsw91987100 2.8 9991452
11:00−12wsw10238495 3.1 10021731
14:00−9w10188492 0.3 10061527
17:00−10wsw7138460 0.4 10101015
20:00−16wsw259212 0.0 1012143